| time (UTC) | temp F | wind direction | speed knots | gust knots | rain 1hr in | rain 24hr in | rain mn in | humidity % | barometer mb |
| 20260508151526 | 45 | 321 | 8.7 | 13.0 | 0.00 | 0.85 | 0.01 | 97 | 1001.7 |
| 20260508150024 | 45 | 293 | 8.7 | 13.0 | 0.00 | 0.85 | 0.01 | 97 | 1001.6 |
| 20260508144516 | 46 | 317 | 8.7 | 12.2 | 0.00 | 0.85 | 0.01 | 98 | 1001.5 |
| 20260508143015 | 45 | 310 | 7.0 | 12.2 | 0.00 | 0.85 | 0.01 | 98 | 1001.7 |
| 20260508141519 | 45 | 320 | 9.6 | 13.0 | 0.00 | 0.85 | 0.01 | 99 | 1001.7 |
| 20260508140020 | 44 | 314 | 9.6 | 13.9 | 0.00 | 0.85 | 0.01 | 99 | 1001.7 |
| 20260508134516 | 45 | 320 | 7.8 | 12.2 | 0.00 | 0.85 | 0.01 | 99 | 1001.8 |
| 20260508133013 | 46 | 298 | 7.8 | 12.2 | 0.00 | 0.85 | 0.01 | 99 | 1002.0 |
| 20260508131512 | 45 | 322 | 7.8 | 11.3 | 0.00 | 0.85 | 0.01 | 99 | 1002.2 |
| 20260508130011 | 44 | 312 | 9.6 | 14.8 | 0.00 | 0.85 | 0.01 | 99 | 1001.8 |
| 20260508124518 | 43 | 328 | 7.8 | 13.9 | 0.00 | 0.85 | 0.01 | 99 | 1001.8 |
| 20260508123014 | 43 | 310 | 7.8 | 10.4 | 0.00 | 0.85 | 0.01 | 99 | 1001.8 |
| 20260508121505 | 44 | 307 | 5.2 | 10.4 | 0.00 | 0.85 | 0.01 | 99 | 1001.7 |
| 20260508120005 | 43 | 293 | 7.0 | 10.4 | 0.00 | 0.86 | 0.01 | 99 | 1001.8 |
| 20260508114504 | 43 | 313 | 7.0 | 10.4 | 0.00 | 0.86 | 0.01 | 99 | 1001.9 |
| 20260508113106 | 43 | 309 | 6.1 | 8.7 | 0.00 | 0.86 | 0.01 | 99 | 1002.1 |
| 20260508111610 | 42 | 309 | 3.5 | 7.8 | 0.00 | 0.86 | 0.01 | 99 | 1002.3 |
| 20260508110059 | 43 | 304 | 5.2 | 7.0 | 0.00 | 0.86 | 0.01 | 99 | 1002.2 |
| 20260508104604 | 42 | 301 | 3.5 | 7.0 | 0.00 | 0.86 | 0.01 | 99 | 1002.0 |
| 20260508103056 | 42 | 326 | 5.2 | 7.0 | 0.00 | 0.86 | 0.01 | 99 | 1002.1 |
| 20260508101553 | 41 | 312 | 3.5 | 6.1 | 0.00 | 0.86 | 0.01 | 99 | 1002.4 |
| 20260508100051 | 41 | 314 | 1.7 | 5.2 | 0.00 | 0.86 | 0.01 | 99 | 1002.1 |
| 20260508094550 | 41 | 312 | 2.6 | 7.0 | 0.00 | 0.86 | 0.01 | 99 | 1002.3 |
| 20260508093053 | 41 | 310 | 4.3 | 7.8 | 0.00 | 0.86 | 0.01 | 99 | 1002.3 |
| 20260508091555 | 41 | 306 | 5.2 | 7.8 | 0.00 | 0.86 | 0.01 | 99 | 1002.1 |
| 20260508090054 | 41 | 307 | 2.6 | 7.0 | 0.00 | 0.86 | 0.01 | 99 | 1001.7 |
| 20260508084540 | 42 | 303 | 5.2 | 7.8 | 0.00 | 0.86 | 0.01 | 99 | 1001.5 |
| 20260508083039 | 42 | 304 | 4.3 | 7.8 | 0.01 | 0.86 | 0.01 | 99 | 1002.0 |
| 20260508081541 | 42 | 307 | 5.2 | 7.8 | 0.01 | 0.86 | 0.01 | 99 | 1002.1 |
| 20260508080050 | 42 | 300 | 5.2 | 8.7 | 0.01 | 0.86 | 0.01 | 99 | 1001.5 |
| 20260508074537 | 42 | 304 | 7.0 | 10.4 | 0.01 | 0.86 | 0.01 | 99 | 1001.5 |
| 20260508073044 | 42 | 314 | 8.7 | 11.3 | 0.00 | 0.85 | 0.00 | 99 | 1001.1 |
| 20260508071546 | 42 | 308 | 4.3 | 8.7 | 0.00 | 0.85 | 0.00 | 99 | 1001.4 |
| 20260508070049 | 42 | 296 | 6.1 | 10.4 | 0.00 | 0.85 | 0.00 | 99 | 1001.4 |
| 20260508064536 | 42 | 305 | 7.0 | 10.4 | 0.00 | 0.85 | 0.00 | 99 | 1001.5 |
| 20260508063031 | 43 | 294 | 7.8 | 12.2 | 0.00 | 0.85 | 0.00 | 99 | 1001.8 |
| 20260508061529 | 43 | 308 | 8.7 | 13.0 | 0.00 | 0.85 | 0.00 | 99 | 1001.4 |
| 20260508060034 | 43 | 329 | 8.7 | 13.0 | 0.00 | 0.85 | 0.00 | 99 | 1001.4 |
| 20260508054530 | 44 | 306 | 6.1 | 11.3 | 0.00 | 0.85 | 0.00 | 99 | 1001.7 |
| 20260508053022 | 44 | 306 | 6.1 | 10.4 | 0.00 | 0.85 | 0.00 | 99 | 1001.6 |
| 20260508051520 | 44 | 312 | 7.0 | 9.6 | 0.00 | 0.85 | 0.00 | 98 | 1001.6 |
| 20260508050017 | 45 | 316 | 5.2 | 7.8 | 0.00 | 0.85 | 0.00 | 99 | 1001.3 |
| 20260508044515 | 45 | 295 | 4.3 | 8.7 | 0.00 | 0.85 | 0.00 | 98 | 1001.2 |
| 20260508043015 | 45 | 304 | 6.1 | 8.7 | 0.00 | 0.85 | 0.00 | 98 | 1001.4 |
| 20260508041509 | 45 | 305 | 6.1 | 10.4 | 0.00 | 0.85 | 0.00 | 98 | 1001.3 |
| 20260508040007 | 47 | 314 | 5.2 | 7.8 | 0.00 | 0.85 | 0.00 | 98 | 1001.5 |
| 20260508034504 | 48 | 311 | 4.3 | 9.6 | 0.00 | 0.85 | 0.00 | 98 | 1001.8 |
| 20260508033001 | 48 | 326 | 7.0 | 9.6 | 0.00 | 0.85 | 0.00 | 99 | 1001.9 |
| 20260508031600 | 48 | 353 | 7.0 | 13.0 | 0.00 | 0.85 | 0.00 | 99 | 1001.9 |
| 20260508030109 | 48 | 291 | 7.0 | 10.4 | 0.00 | 0.85 | 0.85 | 98 | 1002.0 |
| 20260508024619 | 48 | 302 | 7.0 | 8.7 | 0.00 | 0.85 | 0.85 | 99 | 1002.1 |
| 20260508023055 | 48 | 290 | 3.5 | 7.8 | 0.00 | 0.85 | 0.85 | 98 | 1002.3 |
| 20260508021555 | 48 | 300 | 7.8 | 10.4 | 0.00 | 0.85 | 0.85 | 98 | 1002.1 |
| 20260508020107 | 48 | 312 | 7.0 | 10.4 | 0.00 | 0.85 | 0.85 | 98 | 1002.1 |
| 20260508014559 | 48 | 305 | 5.2 | 8.7 | 0.00 | 0.85 | 0.85 | 98 | 1002.4 |
| 20260508013104 | 49 | 297 | 6.1 | 12.2 | 0.00 | 0.85 | 0.85 | 98 | 1002.3 |
| 20260508011554 | 49 | 308 | 7.8 | 11.3 | 0.00 | 0.85 | 0.85 | 97 | 1002.3 |
| 20260508010051 | 49 | 299 | 9.6 | 15.6 | 0.00 | 0.85 | 0.85 | 97 | 1002.0 |
| 20260508004548 | 52 | 289 | 3.5 | 5.2 | 0.00 | 0.85 | 0.85 | 98 | 1001.8 |
| 20260508003046 | 52 | 324 | 2.6 | 7.0 | 0.00 | 0.85 | 0.85 | 98 | 1002.0 |
| 20260508001553 | 52 | 316 | 3.5 | 7.0 | 0.00 | 0.85 | 0.85 | 97 | 1002.0 |
| 20260508000045 | 52 | 310 | 3.5 | 5.2 | 0.00 | 0.85 | 0.85 | 97 | 1001.7 |
| 20260507234545 | 52 | 299 | 3.5 | 5.2 | 0.00 | 0.85 | 0.85 | 97 | 1001.6 |
| 20260507233045 | 53 | 297 | 1.7 | 4.3 | 0.00 | 0.85 | 0.85 | 97 | 1001.8 |
| 20260507231546 | 53 | 297 | 2.6 | 7.8 | 0.00 | 0.85 | 0.85 | 97 | 1002.2 |
| 20260507230046 | 53 | 312 | 2.6 | 5.2 | 0.00 | 0.85 | 0.85 | 98 | 1002.0 |
| 20260507224543 | 53 | 214 | 0.0 | 4.3 | 0.00 | 0.85 | 0.85 | 98 | 1002.1 |
| 20260507223042 | 53 | 214 | 1.7 | 10.4 | 0.00 | 0.85 | 0.85 | 97 | 1002.0 |
| 20260507221541 | 53 | 214 | 7.0 | 10.4 | 0.00 | 0.85 | 0.85 | 98 | 1001.9 |
| 20260507220040 | 53 | 213 | 2.6 | 9.6 | 0.00 | 0.85 | 0.85 | 98 | 1001.9 |
| 20260507214545 | 53 | 230 | 9.6 | 13.9 | 0.00 | 0.85 | 0.85 | 98 | 1001.4 |
| 20260507213045 | 52 | 156 | 5.2 | 11.3 | 0.00 | 0.85 | 0.85 | 98 | 1001.8 |
| 20260507211548 | 52 | 145 | 3.5 | 8.7 | 0.00 | 0.85 | 0.85 | 98 | 1002.3 |
| 20260507210041 | 52 | 129 | 1.7 | 9.6 | 0.02 | 0.85 | 0.85 | 98 | 1002.2 |
| 20260507204539 | 51 | 122 | 7.8 | 13.0 | 0.03 | 0.85 | 0.85 | 98 | 1001.4 |
| 20260507203036 | 51 | 119 | 7.8 | 13.9 | 0.06 | 0.85 | 0.85 | 98 | 1001.5 |
| 20260507201543 | 51 | 117 | 8.7 | 14.8 | 0.11 | 0.85 | 0.85 | 98 | 1001.4 |
| 20260507200038 | 52 | 123 | 8.7 | 14.8 | 0.17 | 0.83 | 0.83 | 98 | 1002.0 |
| 20260507194531 | 52 | 113 | 6.1 | 8.7 | 0.22 | 0.82 | 0.82 | 98 | 1002.7 |
| 20260507193034 | 52 | 149 | 7.0 | 10.4 | 0.26 | 0.79 | 0.79 | 98 | 1002.7 |
| 20260507191528 | 52 | 166 | 5.2 | 9.6 | 0.28 | 0.74 | 0.74 | 97 | 1003.2 |
| 20260507190026 | 52 | 158 | 6.1 | 12.2 | 0.31 | 0.67 | 0.67 | 97 | 1003.6 |
| 20260507184525 | 52 | 193 | 8.7 | 13.9 | 0.35 | 0.60 | 0.60 | 97 | 1003.9 |
| 20260507183023 | 53 | 205 | 8.7 | 15.6 | 0.38 | 0.52 | 0.52 | 97 | 1004.4 |
| 20260507181523 | 53 | 179 | 7.8 | 12.2 | 0.38 | 0.45 | 0.45 | 98 | 1004.7 |
| 20260507180037 | 53 | 186 | 7.0 | 11.3 | 0.32 | 0.36 | 0.36 | 98 | 1004.7 |
| 20260507174525 | 52 | 185 | 7.8 | 13.9 | 0.22 | 0.25 | 0.25 | 98 | 1005.0 |
| 20260507173024 | 52 | 205 | 8.7 | 14.8 | 0.12 | 0.13 | 0.13 | 97 | 1005.1 |
| 20260507171516 | 51 | 171 | 7.8 | 17.4 | 0.06 | 0.06 | 0.06 | 97 | 1004.6 |
| 20260507170031 | 51 | 190 | 12.2 | 20.9 | 0.03 | 0.04 | 0.04 | 97 | 1004.5 |
| 20260507164512 | 51 | 142 | 10.4 | 17.4 | 0.02 | 0.03 | 0.03 | 97 | 1004.9 |
| 20260507161507 | 51 | 155 | 10.4 | 20.9 | 0.00 | 0.01 | 0.01 | 96 | 1005.6 |
| 20260507160004 | 51 | 141 | 12.2 | 22.6 | 0.00 | 0.01 | 0.01 | 96 | 1006.0 |
| 20260507154504 | 52 | 150 | 13.9 | 21.7 | 0.00 | 0.01 | 0.01 | 95 | 1006.4 |
| 20260507153107 | 52 | 157 | 13.0 | 23.5 | 0.00 | 0.01 | 0.01 | 96 | 1007.0 |